FW7376 Weather Reports


Display with metric or nautical units.
time (UTC)temp
F
wind
direction
speed
MPH
gust
MPH
rain 1hr
in
rain 24hr
in
rain mn
in
humidity
%
barometer
mb
20260506001606 74 209 5.0 9.0 0.00 0.00 0.00 31 1009.3
20260506001106 74 198 5.0 9.0 0.00 0.00 0.00 32 1009.2
20260506000606 74 198 4.0 10.0 0.00 0.00 0.00 32 1009.2
20260505235105 75 217 6.0 13.0 0.00 0.00 0.00 31 1009.1
20260505234106 76 201 7.0 15.0 0.00 0.00 0.00 30 1009.1
20260505233106 76 194 6.0 13.0 0.00 0.00 0.00 30 1009.2
20260505232105 76 204 6.0 15.0 0.00 0.00 0.00 31 1009.1
20260505231106 76 197 7.0 15.0 0.00 0.00 0.00 31 1009.0
20260505230106 77 195 6.0 12.0 0.00 0.00 0.00 30 1009.0
20260505225605 77 192 9.0 21.0 0.00 0.00 0.00 30 1009.0
20260505224606 77 190 6.0 18.0 0.00 0.00 0.00 31 1009.0
20260505223105 77 222 5.0 14.0 0.00 0.00 0.00 32 1009.0
20260505222106 77 212 7.0 20.0 0.00 0.00 0.00 31 1009.1
20260505215605 78 220 7.0 20.0 0.00 0.00 0.00 32 1009.1
20260505215105 78 218 7.0 14.0 0.00 0.00 0.00 31 1009.1
20260505214605 78 226 9.0 16.0 0.00 0.00 0.00 32 1009.2
20260505213105 79 217 7.0 12.0 0.00 0.00 0.00 32 1009.0
20260505212606 79 224 5.0 14.0 0.00 0.00 0.00 32 1009.0
20260505212106 80 231 5.0 12.0 0.00 0.00 0.00 32 1008.9
20260505210105 80 245 10.0 20.0 0.00 0.00 0.00 26 1008.8
20260505205105 81 221 8.0 15.0 0.00 0.00 0.00 25 1008.8
20260505204605 81 222 11.0 20.0 0.00 0.00 0.00 25 1008.9
20260505204105 82 210 9.0 17.0 0.00 0.00 0.00 25 1008.9
20260505203105 82 230 9.0 17.0 0.00 0.00 0.00 27 1009.0
20260505202606 81 221 7.0 17.0 0.00 0.00 0.00 28 1008.9
20260505202105 80 240 6.0 15.0 0.00 0.00 0.00 29 1008.9
20260505201605 80 242 12.0 21.0 0.00 0.00 0.00 27 1008.9
20260505201105 81 237 7.0 17.0 0.00 0.00 0.00 27 1008.9
20260505200605 81 251 12.0 18.0 0.00 0.00 0.00 25 1009.2
20260505195605 81 260 11.0 16.0 0.00 0.00 0.00 28 1009.2
20260505193605 81 212 6.0 12.0 0.00 0.00 0.00 34 1009.5
20260505192605 80 228 10.0 20.0 0.00 0.00 0.00 32 1009.6
20260505192105 81 229 7.0 16.0 0.00 0.00 0.00 31 1009.6
20260505191605 81 246 7.0 15.0 0.00 0.00 0.00 30 1009.7
20260505191105 81 257 6.0 14.0 0.00 0.00 0.00 32 1009.8
20260505184605 81 221 8.0 18.0 0.00 0.00 0.00 32 1010.1
20260505184105 81 223 7.0 14.0 0.00 0.00 0.00 33 1010.0
20260505183105 80 235 8.0 17.0 0.00 0.00 0.00 33 1010.2
20260505182606 80 217 9.0 15.0 0.00 0.00 0.00 33 1010.2
20260505182105 80 213 8.0 17.0 0.00 0.00 0.00 32 1010.2
20260505181605 80 224 7.0 20.0 0.00 0.00 0.00 34 1010.4
20260505180606 80 219 7.0 12.0 0.00 0.00 0.00 33 1010.4
20260505180105 80 236 8.0 14.0 0.00 0.00 0.00 33 1010.5
20260505175605 80 242 8.0 13.0 0.00 0.00 0.00 34 1010.6
20260505175105 80 231 8.0 15.0 0.00 0.00 0.00 32 1010.7
20260505174605 80 251 5.0 13.0 0.00 0.00 0.00 35 1010.6
20260505173605 79 220 6.0 13.0 0.00 0.00 0.00 35 1010.7
20260505173105 79 231 8.0 15.0 0.00 0.00 0.00 36 1010.7
20260505172605 79 228 8.0 15.0 0.00 0.00 0.00 34 1010.8
20260505162605 77 217 5.0 14.0 0.00 0.00 0.00 40 1011.5
20260505162105 77 223 10.0 15.0 0.00 0.00 0.00 38 1011.8
20260505161605 77 258 4.0 12.0 0.00 0.00 0.00 38 1011.8
20260505160105 77 258 5.0 12.0 0.00 0.00 0.00 40 1012.0
20260505153105 75 247 7.0 16.0 0.00 0.00 0.00 41 1012.1
20260505140605 72 208 5.0 12.0 0.00 0.00 0.00 46 1012.1
20260505124605 66 189 5.0 10.0 0.00 0.00 0.00 52 1012.8
20260505123604 66 223 4.0 12.0 0.00 0.00 0.00 53 1012.9
20260505122605 65 218 5.0 12.0 0.00 0.00 0.00 54 1013.1
20260505115105 64 231 5.0 10.0 0.00 0.00 0.00 54 1013.0
20260505114105 64 219 2.0 12.0 0.00 0.00 0.00 54 1012.9
20260505112605 64 226 5.0 12.0 0.00 0.00 0.00 53 1012.7
20260505112104 64 244 5.0 12.0 0.00 0.00 0.00 54 1012.6
20260505111604 63 238 5.0 10.0 0.00 0.00 0.00 54 1012.6
20260505102105 64 226 4.0 8.0 0.00 0.00 0.00 52 1011.9
20260505101104 64 223 5.0 12.0 0.00 0.00 0.00 51 1011.9
20260505100105 64 231 5.0 10.0 0.00 0.00 0.00 51 1011.8
20260505095104 65 219 5.0 12.0 0.00 0.00 0.00 51 1011.9
20260505094604 65 220 5.0 9.0 0.00 0.00 0.00 50 1011.8
20260505091604 64 224 5.0 12.0 0.00 0.00 0.00 52 1011.7
20260505090605 64 204 5.0 12.0 0.00 0.00 0.00 52 1011.6
20260505090105 64 207 7.0 12.0 0.00 0.00 0.00 52 1011.6
20260505085105 65 213 5.0 14.0 0.00 0.00 0.00 52 1011.7
20260505084105 65 231 6.0 12.0 0.00 0.00 0.00 52 1011.6
20260505082604 65 217 5.0 14.0 0.00 0.00 0.00 52 1011.5
20260505082104 65 216 6.0 13.0 0.00 0.00 0.00 52 1011.5
20260505081104 65 226 6.0 12.0 0.00 0.00 0.00 53 1011.5
20260505075604 65 219 7.0 13.0 0.00 0.00 0.00 53 1011.5
20260505074604 65 227 3.0 9.0 0.00 0.00 0.00 53 1011.5
20260505072104 62 215 2.0 8.0 0.00 0.00 0.00 58 1011.3
20260505071604 62 197 5.0 10.0 0.00 0.00 0.00 58 1011.2
20260505065604 63 190 5.0 7.0 0.00 0.00 0.00 54 1011.2
20260505064104 64 218 2.0 3.0 0.00 0.00 0.00 53 1011.2
20260505063105 62 233 4.0 7.0 0.00 0.00 0.00 56 1011.3
20260505062605 62 212 2.0 5.0 0.00 0.00 0.00 58 1011.3
20260505062104 62 188 2.0 5.0 0.00 0.00 0.00 58 1011.3
20260505060104 62 185 2.0 5.0 0.00 0.00 0.00 57 1011.5
20260505054604 63 209 2.0 6.0 0.00 0.00 0.00 56 1011.6
20260505054104 63 188 3.0 6.0 0.00 0.00 0.00 56 1011.6
20260505053104 64 192 4.0 8.0 0.00 0.00 0.00 54 1011.6
20260505052105 65 220 3.0 7.0 0.00 0.00 0.00 54 1011.6
20260505050104 65 227 6.0 12.0 0.00 0.00 0.00 54 1011.7
20260505041109 65 220 5.0 10.0 0.00 0.00 0.00 54 1011.3
20260505040605 65 229 5.0 12.0 0.00 0.00 0.00 54 1011.4
20260505035104 66 225 5.0 7.0 0.00 0.00 0.00 53 1011.5
20260505034604 66 222 5.0 10.0 0.00 0.00 0.00 53 1011.5
20260505034104 66 234 5.0 12.0 0.00 0.00 0.00 53 1011.4
20260505033104 66 221 5.0 12.0 0.00 0.00 0.00 52 1011.4
20260505032105 66 218 6.0 17.0 0.00 0.00 0.00 52 1011.4
20260505030604 66 224 6.0 12.0 0.00 0.00 0.00 51 1011.5
20260505030105 66 228 6.0 15.0 0.00 0.00 0.00 51 1011.4
20260505024105 66 237 6.0 12.0 0.00 0.00 0.00 50 1011.5
20260505023605 66 223 7.0 12.0 0.00 0.00 0.00 50 1011.5
20260505023106 66 238 5.0 10.0 0.00 0.00 0.00 51 1011.5
20260505022605 66 237 6.0 12.0 0.00 0.00 0.00 50 1011.5
20260505022105 66 231 4.0 10.0 0.00 0.00 0.00 51 1011.5
20260505021606 66 231 5.0 12.0 0.00 0.00 0.00 50 1011.4
20260505015606 67 217 5.0 9.0 0.00 0.00 0.00 50 1011.4
20260505015105 67 210 5.0 12.0 0.00 0.00 0.00 50 1011.4
20260505014105 67 233 6.0 12.0 0.00 0.00 0.00 50 1011.3
20260505012105 66 185 3.0 7.0 0.00 0.00 0.00 53 1011.0
20260505010605 67 164 3.0 8.0 0.00 0.00 0.00 53 1011.1
20260505010106 68 171 5.0 7.0 0.00 0.00 0.00 53 1011.0
20260505005606 68 233 2.0 5.0 0.00 0.00 0.00 49 1011.1
20260505005106 68 221 3.0 8.0 0.00 0.00 0.00 44 1010.9
20260505004106 68 196 5.0 12.0 0.00 0.00 0.00 42 1010.6
20260505003605 69 188 6.0 12.0 0.00 0.00 0.00 42 1010.4
20260505002605 69 192 6.0 14.0 0.00 0.00 0.00 41 1010.4